N0YUV Weather Reports


time (UTC)temp
F
wind
direction
speed
knots
gust
knots
rain 1hr
in
rain 24hr
in
rain mn
in
humidity
%
barometer
mb
20260504191512 74 95 0.0 0.0 0.00 0.00 0.00 34 1003.0
20260504190011 75 95 0.0 0.0 0.00 0.00 0.00 37 1002.9
20260504184513 75 94 0.0 0.0 0.00 0.00 0.00 39 1002.7
20260504183012 74 95 0.0 0.0 0.00 0.00 0.00 41 1002.6
20260504181510 74 96 0.0 0.0 0.00 0.00 0.00 43 1002.8
20260504180013 75 96 0.0 0.0 0.00 0.00 0.00 43 1002.7
20260504174507 75 96 0.0 0.0 0.00 0.00 0.00 43 1002.7
20260504173013 76 96 0.0 0.0 0.00 0.00 0.00 40 1002.7
20260504171503 76 96 0.0 0.0 0.00 0.00 0.00 41 1002.5
20260504120113 49 360 0.0 0.0 0.00 0.00 0.00 70 1003.0
20260504081529 53 360 0.0 0.0 0.00 0.00 0.00 65 1003.9
20260504050136 58 360 0.0 0.0 0.00 0.00 0.00 53 1006.7
20260504044558 58 360 0.0 0.0 0.00 0.00 0.00 53 1006.7
20260504043100 58 360 0.0 0.0 0.00 0.00 0.00 53 1006.8
20260504041553 60 360 0.0 0.0 0.00 0.00 0.00 51 1007.0
20260504034552 62 360 0.0 0.0 0.00 0.00 0.00 47 1007.2
20260504033048 63 360 0.0 0.0 0.00 0.00 0.00 46 1007.5
20260504031649 64 360 0.0 0.0 0.00 0.00 0.00 45 1007.6
20260504030047 65 360 0.0 0.0 0.00 0.00 0.00 41 1007.6
20260504024547 66 360 0.0 0.0 0.00 0.00 0.00 40 1007.7
20260504023045 66 360 0.0 0.0 0.00 0.00 0.00 40 1007.7
20260504021644 67 360 0.0 0.0 0.00 0.00 0.00 39 1007.8
20260504020044 67 360 0.0 0.0 0.00 0.00 0.00 38 1008.0
20260504014543 68 360 0.0 0.0 0.00 0.00 0.00 37 1008.1
20260504013040 69 360 0.0 0.0 0.00 0.00 0.00 36 1008.2
20260504011544 70 360 0.0 0.0 0.00 0.00 0.00 37 1008.2
20260504010043 70 360 0.0 0.0 0.00 0.00 0.00 36 1008.3
20260504004536 71 97 0.0 0.0 0.00 0.00 0.00 36 1008.4
20260504003041 71 98 0.0 0.0 0.00 0.00 0.00 36 1008.5
20260504001537 72 98 0.0 0.0 0.00 0.00 0.00 35 1008.7
20260504000033 72 99 0.0 0.0 0.00 0.00 0.00 34 1008.7
20260503234534 72 100 0.0 0.0 0.00 0.00 0.00 36 1008.7
20260503233030 73 101 0.0 0.0 0.00 0.00 0.00 34 1008.8
20260503231543 73 101 0.0 0.0 0.00 0.00 0.00 34 1008.9
20260503230029 73 101 0.0 0.0 0.00 0.00 0.00 35 1008.8
20260503224527 74 102 0.0 0.0 0.00 0.00 0.00 34 1009.0
20260503223027 74 102 0.0 0.0 0.00 0.00 0.00 33 1009.0
20260503221525 75 103 0.0 0.0 0.00 0.00 0.00 33 1009.2
20260503220031 76 104 0.0 0.0 0.00 0.00 0.00 32 1009.3
20260503214520 76 105 0.0 0.0 0.00 0.00 0.00 32 1009.5
20260503213018 75 107 0.0 0.0 0.00 0.00 0.00 33 1009.8
20260503211522 75 117 0.0 0.0 0.00 0.00 0.00 34 1010.0
20260503210017 74 123 0.0 0.0 0.00 0.00 0.00 33 1010.2
20260503204511 74 118 0.0 0.0 0.00 0.00 0.00 34 1010.4
20260503203020 74 120 0.0 0.0 0.00 0.00 0.00 33 1010.5
20260503201511 74 122 0.0 0.0 0.00 0.00 0.00 34 1010.7
20260503200009 74 125 0.0 0.0 0.00 0.00 0.00 34 1010.9
20260503194510 74 126 0.0 0.0 0.00 0.00 0.00 35 1010.8
20260503193007 73 128 0.0 0.0 0.00 0.00 0.00 39 1011.0